STARLINK-1142, 45093

Orbit data source: Space-Track

STARLINK-1142, 45093 is a payload satellite owned by SpaceX/Seattle (US) in LEO that was launched on Wed, 29 Jan 2020 UTC via an FALCON 9 launch vehicle from the Air Force Eastern Test Range (AFETR). Payload-class satellites include a variety of spacecraft equipped with specific instruments for various scientific and technological missions. These include communications satellites like Starlink; space stations such as the ISS; scientific satellites like the Hubble; Earth observation satellites from companies like Planet Labs, Umbra, and HawkEye 360; GPS; miniature CubeSats for education and research; and military/defense satellites.

Loading next visibility...
Identifier
45093, 2020-006BB
Orbit
LEO
Country
Flag of USUS
Related business
Manufacturer
SpaceX/Seattle
Mission
Partially operational Commercial Communications
Bus & Motor
STARLINK, Unknown motor
Mass
260 kg wet, ~248 kg dry
Launch date (UTC)
2020-01-29 (6 years ago)
Launch vehicle
FALCON 9
Launch site
Air Force Eastern Test Range (AFETR)
Object type
Payload
Rocket body
Debris
Shape & HBR
Box + 1 Pan, 4.4 m
Radar Cross Section
13.562 m², Large (>1 m²)

Expand to show TLE details & history
Last TLE update: 2 days ago

TLE from 2 days ago
0 STARLINK-1142
1 45093U 20006BB  25260.36629151  .00055684  00000-0  99161-3 0  9994
2 45093  53.0384 253.2567 0006328  44.1273 316.0238 15.49588678311623
Epoch: 2025-09-17T08:47Z
TLE epoch observation values (Epoch: 2025-09-17T08:47:27.586Z)
Latitude
-0.00006°
Longitude
124.84844°
Altitude
415.729 km
Speed
7.665 km/s
True Right ascension
16h 53m 01s
True Declination
0° 00' 00"
Sunlit
Object was in daylight at epoch
Visualization orbit readout
Latitude
Unknown
Longitude
Unknown
Altitude
Unknown
Speed
Unknown
Apparent Right ascension
Unknown
Apparent Declination
Unknown
Sunlit
N/A
Visualization observer readout
Local Sidereal Time
15:15:31
Azimuth
Unknown
Elevation
Unknown
Doppler factor
Unknown
Orbital elements
Apogee altitude
422.507 km
Perigee altitude
413.906 km
Semi-major axis
6,796.344 km
Eccentricity
0.00063
Inclination
53.0384°
RAAN
253.2567°
Arg. of periapsis
44.1273°
True anomaly
315.97342°
Mean anomaly
316.0238°
Eccentric anomaly
315.99861°
Mean motion
3.87374 °/min
Orbital period
92.93 mins
BSTAR
0.00099161
Loading maneuver chart data...
Computing Atmospheric mass density...

Documentation

Showing up to 5 results
|